Previsão horária em Cegrane

Hoje, 25 Julho, Domingo

Tempo Temperatura Precipitação Vento Pressão Humidade
00:00 +18°C° 0 mm 1 m/s 694 mmHg 59%
01:00 +18°C° 0 mm 1 m/s 694 mmHg 59%
02:00 +18°C° 0 mm 1 m/s 694 mmHg 60%
03:00 +16°C° 0 mm 1 m/s 693 mmHg 60%
04:00 +16°C° 0 mm 1 m/s 693 mmHg 61%
05:00 +19°C° 0 mm 1 m/s 694 mmHg 55%
06:00 +20°C° 0 mm 0 m/s 694 mmHg 50%
07:00 +22°C° 0 mm 0 m/s 695 mmHg 44%
08:00 +24°C° 0 mm 0 m/s 695 mmHg 41%
09:00 +28°C° 0 mm 1 m/s 695 mmHg 37%
10:00 +29°C° 0 mm 1 m/s 696 mmHg 33%
11:00 +31°C° 0 mm 1 m/s 695 mmHg 31%
12:00 +32°C° 0 mm 1 m/s 695 mmHg 29%
13:00 +34°C° 0 mm 2 m/s 695 mmHg 27%
14:00 +34°C° 0 mm 2 m/s 695 mmHg 26%
15:00 +34°C° 0 mm 2 m/s 695 mmHg 26%
16:00 +34°C° 0 mm 2 m/s 695 mmHg 25%
17:00 +31°C° 0 mm 2 m/s 694 mmHg 30%
18:00 +28°C° 0 mm 1 m/s 694 mmHg 36%
19:00 +25°C° 0 mm 1 m/s 694 mmHg 42%
20:00 +25°C° 0 mm 1 m/s 694 mmHg 43%
21:00 +24°C° 0 mm 1 m/s 695 mmHg 45%
22:00 +23°C° 0 mm 1 m/s 695 mmHg 47%
23:00 +23°C° 0 mm 1 m/s 695 mmHg 48%

Amanhã, 26 Julho, Segunda-feira

Tempo Temperatura Precipitação Vento Pressão Humidade
00:00 +22°C° 0 mm 1 m/s 695 mmHg 50%
01:00 +22°C° 0 mm 1 m/s 694 mmHg 51%
02:00 +21°C° 0 mm 1 m/s 694 mmHg 52%
03:00 +21°C° 0 mm 1 m/s 694 mmHg 53%
04:00 +21°C° 0 mm 1 m/s 694 mmHg 53%
05:00 +23°C° 0 mm 1 m/s 695 mmHg 49%
06:00 +25°C° 0 mm 1 m/s 696 mmHg 45%
07:00 +27°C° 0 mm 1 m/s 696 mmHg 41%
08:00 +29°C° 0 mm 1 m/s 697 mmHg 37%
09:00 +31°C° 0 mm 1 m/s 697 mmHg 33%
10:00 +33°C° 0 mm 1 m/s 697 mmHg 29%
11:00 +34°C° 0 mm 1 m/s 697 mmHg 27%
12:00 +36°C° 0 mm 2 m/s 697 mmHg 25%
13:00 +36°C° 0 mm 2 m/s 697 mmHg 23%
14:00 +36°C° 0 mm 2 m/s 697 mmHg 24%
15:00 +36°C° 0 mm 2 m/s 697 mmHg 25%
16:00 +36°C° 0 mm 2 m/s 696 mmHg 26%
17:00 +32°C° 0 mm 1 m/s 696 mmHg 32%
18:00 +29°C° 0 mm 1 m/s 696 mmHg 39%
19:00 +27°C° 0 mm 1 m/s 696 mmHg 46%
20:00 +26°C° 0 mm 1 m/s 696 mmHg 47%
21:00 +25°C° 0 mm 1 m/s 697 mmHg 49%
22:00 +24°C° 0 mm 1 m/s 697 mmHg 51%
23:00 +24°C° 0 mm 1 m/s 697 mmHg 51%

Depois de amanhã, 27 Julho, Terça-feira

Tempo Temperatura Precipitação Vento Pressão Humidade
00:00 +24°C° 0 mm 1 m/s 697 mmHg 50%
01:00 +23°C° 0 mm 1 m/s 697 mmHg 50%
02:00 +23°C° 0 mm 1 m/s 697 mmHg 50%
03:00 +23°C° 0 mm 1 m/s 697 mmHg 50%
04:00 +22°C° 0 mm 1 m/s 697 mmHg 50%
05:00 +25°C° 0 mm 1 m/s 697 mmHg 46%
06:00 +27°C° 0 mm 1 m/s 697 mmHg 42%
07:00 +27°C° 0 mm 0 m/s 698 mmHg 38%
08:00 +31°C° 0 mm 1 m/s 698 mmHg 33%
09:00 +34°C° 0 mm 1 m/s 698 mmHg 28%
10:00 +36°C° 0 mm 1 m/s 699 mmHg 23%
11:00 +36°C° 0 mm 1 m/s 698 mmHg 21%
12:00 +38°C° 0 mm 2 m/s 698 mmHg 18%
13:00 +39°C° 0 mm 2 m/s 698 mmHg 16%
14:00 +39°C° 0 mm 2 m/s 698 mmHg 17%
15:00 +38°C° 0 mm 2 m/s 697 mmHg 18%
16:00 +38°C° 0 mm 3 m/s 697 mmHg 19%
17:00 +35°C° 0 mm 2 m/s 697 mmHg 23%
18:00 +31°C° 0 mm 2 m/s 697 mmHg 27%
19:00 +28°C° 0 mm 2 m/s 696 mmHg 31%
20:00 +28°C° 0 mm 2 m/s 696 mmHg 30%
21:00 +27°C° 0 mm 2 m/s 697 mmHg 29%
22:00 +26°C° 0 mm 2 m/s 697 mmHg 29%
23:00 +26°C° 0 mm 2 m/s 696 mmHg 28%

28 Julho, Quarta-feira

Tempo Temperatura Precipitação Vento Pressão Humidade
00:00 +25°C° 0 mm 1 m/s 696 mmHg 27%
01:00 +25°C° 0 mm 1 m/s 696 mmHg 26%
02:00 +24°C° 0 mm 1 m/s 696 mmHg 27%
03:00 +24°C° 0 mm 1 m/s 696 mmHg 27%
04:00 +23°C° 0 mm 1 m/s 696 mmHg 27%
05:00 +26°C° 0 mm 1 m/s 696 mmHg 26%
06:00 +26°C° 0 mm 0 m/s 697 mmHg 26%
07:00 +29°C° 0 mm 0 m/s 697 mmHg 25%
08:00 +31°C° 0 mm 0 m/s 697 mmHg 22%
09:00 +35°C° 0 mm 1 m/s 698 mmHg 19%
10:00 +37°C° 0 mm 1 m/s 698 mmHg 17%
11:00 +37°C° 0 mm 1 m/s 697 mmHg 16%
12:00 +39°C° 0 mm 1 m/s 697 mmHg 14%
13:00 +40°C° 0 mm 2 m/s 697 mmHg 13%
14:00 +39°C° 0 mm 2 m/s 697 mmHg 14%
15:00 +39°C° 0 mm 2 m/s 696 mmHg 15%
16:00 +38°C° 0 mm 2 m/s 696 mmHg 15%
17:00 +36°C° 0 mm 2 m/s 696 mmHg 19%
18:00 +32°C° 0 mm 2 m/s 695 mmHg 23%
19:00 +29°C° 0 mm 2 m/s 695 mmHg 28%
20:00 +28°C° 0 mm 2 m/s 695 mmHg 28%
21:00 +27°C° 0 mm 2 m/s 695 mmHg 27%
22:00 +27°C° 0 mm 2 m/s 696 mmHg 27%
23:00 +26°C° 0 mm 2 m/s 695 mmHg 27%

29 Julho, Quinta-feira

Tempo Temperatura Precipitação Vento Pressão Humidade
00:00 +26°C° 0 mm 2 m/s 695 mmHg 27%
01:00 +26°C° 0 mm 1 m/s 695 mmHg 27%
02:00 +25°C° 0 mm 1 m/s 695 mmHg 28%
03:00 +25°C° 0 mm 1 m/s 695 mmHg 28%
04:00 +24°C° 0 mm 1 m/s 695 mmHg 29%
05:00 +27°C° 0 mm 1 m/s 695 mmHg 27%
06:00 +29°C° 0 mm 1 m/s 695 mmHg 26%
07:00 +29°C° 0 mm 0 m/s 696 mmHg 24%
08:00 +31°C° 0 mm 0 m/s 696 mmHg 22%
09:00 +35°C° 0 mm 1 m/s 696 mmHg 19%
10:00 +37°C° 0 mm 1 m/s 696 mmHg 16%
11:00 +39°C° 0 mm 1 m/s 696 mmHg 15%
12:00 +39°C° 0 mm 1 m/s 696 mmHg 14%
13:00 +40°C° 0 mm 2 m/s 695 mmHg 13%
14:00 +39°C° 0 mm 2 m/s 695 mmHg 14%
15:00 +39°C° 0 mm 2 m/s 695 mmHg 14%
16:00 +39°C° 0 mm 3 m/s 694 mmHg 14%
17:00 +36°C° 0 mm 2 m/s 694 mmHg 19%
18:00 +32°C° 0 mm 2 m/s 694 mmHg 23%
19:00 +29°C° 0 mm 2 m/s 694 mmHg 28%
20:00 +28°C° 0 mm 2 m/s 694 mmHg 29%
21:00 +27°C° 0 mm 2 m/s 694 mmHg 30%
22:00 +26°C° 0 mm 2 m/s 694 mmHg 31%
23:00 +26°C° 0 mm 2 m/s 694 mmHg 31%

30 Julho, Sexta-feira

Tempo Temperatura Precipitação Vento Pressão Humidade
00:00 +26°C° 0 mm 1 m/s 694 mmHg 32%
01:00 +25°C° 0 mm 1 m/s 694 mmHg 32%
02:00 +25°C° 0 mm 1 m/s 694 mmHg 33%
03:00 +25°C° 0 mm 1 m/s 694 mmHg 34%
04:00 +24°C° 0 mm 1 m/s 693 mmHg 34%
05:00 +27°C° 0 mm 1 m/s 694 mmHg 32%
06:00 +29°C° 0 mm 1 m/s 694 mmHg 29%
07:00 +29°C° 0 mm 0 m/s 695 mmHg 27%
08:00 +33°C° 0 mm 1 m/s 695 mmHg 24%
09:00 +35°C° 0 mm 1 m/s 695 mmHg 21%
10:00 +37°C° 0 mm 1 m/s 695 mmHg 17%
11:00 +39°C° 0 mm 2 m/s 695 mmHg 16%
12:00 +39°C° 0 mm 2 m/s 694 mmHg 15%
13:00 +40°C° 0 mm 3 m/s 694 mmHg 14%
14:00 +40°C° 0 mm 3 m/s 694 mmHg 14%
15:00 +40°C° 0 mm 4 m/s 694 mmHg 15%
16:00 +40°C° 0 mm 5 m/s 693 mmHg 15%
17:00 +36°C° 0 mm 4 m/s 693 mmHg 19%
18:00 +33°C° 0 mm 3 m/s 693 mmHg 24%
19:00 +29°C° 0 mm 2 m/s 693 mmHg 28%
20:00 +27°C° 0 mm 2 m/s 693 mmHg 29%
21:00 +26°C° 0 mm 2 m/s 693 mmHg 31%
22:00 +25°C° 0 mm 1 m/s 693 mmHg 32%
23:00 +24°C° 0 mm 1 m/s 693 mmHg 32%
Mostrar mais

Necessitamos do seu Consentimento

A Meteoprog e os seus Fornecedores de Serviços podem armazenar e aceder a dados pessoais como cookies, identificadores do dispositivo ou outras tecnologias semelhantes existentes no seu dispositivo e processar estes dados para personalizar conteúdos e anúncios, assim como funcionalidades nas redes sociais e análise de tráfego.

  • Armazenar e/ou aceder a informações no seu dispositivo

    Os cookies, identificadores do dispositivo ou outras informações podem ser armazenados ou acedidos no seu dispositivo, para os fins acima indicados.

  • Anúncios e conteúdos personalizados, medição de anúncios e conteúdos, dados sobre o público-alvo e desenvolvimento de produtos

    Os anúncios e os conteúdos podem ser personalizados com base num perfil. Podem ser adicionados dados adicionais para uma maior personalização dos anúncios e dos conteúdos. A eficácia dos anúncios e dos conteúdos pode ser medida. Podem ser obtidas informações sobre o público que visualizou os anúncios e os conteúdos. Estes dados podem ser usados para desenvolver ou melhorar sistemas, softwares ou a experiência do utilizador.

Ao clicar em "Eu concordo”, permitirá o uso de cookies, identificadores do dispositivo e web beacons mencionados ou outras tecnologias semelhantes. As configurações do navegador do seu dispositivo podem ser alteradas.

Para certos fins, podem ser invocados interesses legítimos ao invés de consentimento. Pode ler mais informação sobre este assunto na nossa Política de Privacidade e Cookies.